Location: Newark
(44.4156°N, 12.1972°E)
Time: 18:51:10
(UTC+00:00)

STARLINK-1116 - Pass Details

Date: 01 February 2020
Orbit: 348 x 351 km, 53.0° (Epoch: 18 February)

Event Time Altitude Azimuth Distance (km) Brightness Sun altitude
Rises 17:32:58 0° 300° (WNW) 2,158 7.5 -13.3°
Reaches altitude 10° 17:35:01 10° 295° (WNW) 1,313 6.4 -13.7°
Maximum altitude 17:37:52 50° 219° (SW) 451 3.5 -14.2°
Enters shadow 17:40:13 14° 144° (SE) 1,110 4.9 -14.6°
